Regional Weather Roundup
Issued by NWS

Home | Current Version | Previous Version | Text Only | Print | Product List | Glossary On
Versions: 1 2 3 4 5 6 7 8 9 10 11 12 13 14 15 16 17 18 19 20 21 22 23 24 25 26 27 28 29 30 31 32 33 34 35 36 37 38 39 40 41 42 43 44 45 46 47 48 49 50
000
ASUS43 KMPX 271910
RWRMN
WEATHER ROUNDUP FOR MINNESOTA
NATIONAL WEATHER SERVICE TWIN CITIES/CHANHASSEN MN
100 PM CST THU NOV 27 2014


NOTE: "FAIR" INDICATES FEW OR NO CLOUDS BELOW 12,000 FEET WITH NO
SIGNIFICANT WEATHER AND/OR OBSTRUCTIONS TO VISIBILITY. N/A MEANS
CURRENT SKY AND/OR WEATHER CONDITIONS ARE NOT AVAILABLE.

MNZ060>063-068>070-272000-
   Twin Cities Metro

CITY           SKY/WX    TMP DP  RH WIND       PRES   REMARKS
TWIN CITIES    SUNNY      8  -4  58 CALM      30.47F
ST PAUL        SUNNY      8  -3  61 CALM      30.49F
CRYSTAL        SUNNY      9  -5  53 NW5       30.46F WCI   1
BLAINE         SUNNY      9  -2  61 W3        30.46F
LAKEVILLE      SUNNY      7  -4  61 CALM      30.45F
EDEN PRAIRIE   SUNNY      8  -4  58 CALM      30.45F
SOUTH ST PAUL  SUNNY      9  -4  56 CALM      30.47F
LAKE ELMO      FAIR       9  -4  56 W5        30.47F WCI   0
$$
MNZ001>005-007-008-013>017-022>024-027-028-272000-
   Northwest Minnesota

CITY           SKY/WX    TMP DP  RH WIND       PRES   REMARKS
BEMIDJI        SUNNY      3  -8  58 CALM      30.37F
HALLOCK        SUNNY      5  -2  72 S14       30.38F WCI -12
ROSEAU         SUNNY      3  -6  66 SW8       30.39S WCI -10
WARROAD        SUNNY      1  -6  71 S6        30.39S WCI -10
THIEF RVR FALL SUNNY      0  -6  78 S8        30.39S WCI -15
CROOKSTON      SUNNY      1  -6  71 S8        30.42F WCI -12
FOSSTON        SUNNY      1  -8  66 S3        30.38F
DETROIT LAKES  SUNNY      5  -4  66 SE6       30.36F WCI  -6
MOORHEAD       SUNNY      3  -2  78 SE7       30.42F WCI  -9
PARK RAPIDS    SUNNY      5  -6  60 CALM      30.36F
MAHNOMEN       FAIR       1  -8  67 S6        30.38F WCI -10
$$
MNZ006-009>011-018-025>026-272000-
   North Central Minnesota

CITY           SKY/WX    TMP DP  RH WIND       PRES   REMARKS
BAUDETTE       SUNNY      0  -7  72 S5        30.37F WCI -10
FLAG ISLAND    SUNNY      0  -8  71 S12       30.37F WCI -18
INTL FALLS     SUNNY      1  -7  68 CALM      30.38F
WASKISH        SUNNY      1  -6  71 CALM      30.39F
BIG FORK       SUNNY      5  -6  61 CALM      30.38F
LONGVILLE      SUNNY      3  -6  66 CALM      30.39F
GRAND RAPIDS   SUNNY      1  -8  66 SW3       30.37F
CRANE LAKE     SUNNY      1  -8  66 CALM      30.40F
ORR            SUNNY      3  -9  55 CALM      30.34F
COOK           SUNNY      1  -8  66 CALM      30.37F
WALKER         FAIR       4  -7  60 S3        30.37F
$$
MNZ012-019>021-037-272000-
   Northeast Minnesota

CITY           SKY/WX    TMP DP  RH WIND       PRES   REMARKS
DULUTH         SUNNY      6  -7  54 NW7       30.35F WCI  -6
ELY            SUNNY      3  -8  60 CALM      30.35F
HIBBING        SUNNY      5  -7  57 N3        30.37F
EVELETH        SUNNY      3  -8  60 W3        30.37F
DULUTH HARBOR  SUNNY      9  -4  56 CALM      30.45F
TWO HARBORS    SUNNY     12  -2  52 CALM      30.36F
SILVER BAY     SUNNY     12  -6  44 NW3       30.35F
GRAND MARAIS     N/A     12  -4  48 VRB6      30.40F WCI   3
G MARAIS ARPRT SUNNY      3  -9  55 N5        30.28F WCI  -6
$$
MNZ029>031-032-039>041-046>048-054>057-064-272000-
   West Central Minnesota

CITY           SKY/WX    TMP DP  RH WIND       PRES   REMARKS
FERGUS FALLS   SUNNY      5  -8  56 S9        30.43F WCI  -9
WHEATON        SUNNY      1  -6  71 S9        30.45S WCI -14
MORRIS         SUNNY      1  -6  71 S9        30.41F WCI -14
ALEXANDRIA     SUNNY      5  -5  63 S6        30.38F WCI  -6
ELBOW LAKE     FAIR       3  -5  67 S7        30.39F HAZE    WCI  -9
WADENA         SUNNY      5  -6  61 CALM      30.38S
GLENWOOD       SUNNY      5  -6  61 S5        30.40F WCI  -4
APPLETON       SUNNY      3  -6  66 S7        30.44F WCI  -9
BENSON         SUNNY      1  -6  71 SW8       30.44F WCI -12
ORTONVILLE     SUNNY      1  -8  66 S7        30.41F WCI -11
MADISON        SUNNY      3  -2  78 S7        30.43F WCI  -9
WILLMAR        FAIR       3  -6  66 S3        30.45S
$$
MNZ033>034-036-042>043-049>051-058-059-272000-
   Central Minnesota

CITY           SKY/WX    TMP DP  RH WIND       PRES   REMARKS
ST CLOUD       SUNNY      6  -5  60 CALM      30.44F
SAUK CENTRE    FAIR       3  -5  67 S3        30.42S
PAYNESVILLE    SUNNY      2  -7  65 CALM      30.44S
AITKIN         SUNNY      9  -6  52 SW3       30.39F
PINE RIVER     SUNNY      5  -4  66 CALM      30.42F
BRAINERD       SUNNY      5  -6  60 CALM      30.40F
STAPLES        SUNNY      3  -6  66 CALM      30.39F
LONG PRAIRIE   FAIR       3  -6  66 CALM      30.41S
LITTLE FALLS   SUNNY      5  -8  56 CALM      30.43F
LITCHFIELD     SUNNY      7  -4  61 CALM      30.45S
BUFFALO        SUNNY      6  -3  65 CALM      30.47F
MAPLE LAKE     SUNNY      6  -4  65 CALM      30.46F
$$
MNZ037-044-045-052-053-272000-
   East Central Minnesota

CITY           SKY/WX    TMP DP  RH WIND       PRES   REMARKS
PRINCETON      SUNNY      9  -4  56 CALM      30.44F
MORA             N/A    N/A N/A N/A MISG        N/A
CAMBRIDGE      SUNNY      9  -4  56 CALM      30.43F
RUSH CITY      SUNNY      6  -5  59 CALM      30.45F
MOOSE LAKE     SUNNY      9  -6  52 CALM      30.40F
HINCKLEY       FAIR       9  -4  56 CALM      30.43F
CLOQUET        SUNNY      7  -8  51 N3        30.37F
MCGREGOR       SUNNY      9  -6  52 CALM      30.40F
$$
MNZ071>073-080-081-089-090-097-098-272000-
   Southwest Minnesota

CITY           SKY/WX    TMP DP  RH WIND       PRES   REMARKS
MONTEVIDEO     SUNNY      7  -4  61 SW6       30.45F WCI  -3
GRANITE FALLS  SUNNY      2  -5  74 S5        30.47F WCI  -8
CANBY          SUNNY      5  -3  67 S8        30.42F WCI  -8
MARSHALL       SUNNY      3  -6  66 S7        30.43F WCI  -9
REDWOOD FALLS  SUNNY     -1  -6  79 SW6       30.47F WCI -13
OLIVIA         SUNNY      3  -4  72 SW8       30.46S WCI -10
PIPESTONE      SUNNY      9  -4  56 S8        30.36F WCI  -4
WINDOM         SUNNY      3  -4  72 CALM      30.41F
WORTHINGTON    SUNNY      5  -2  72 SE6       30.40F WCI  -6
JACKSON        SUNNY      5  -4  66 SE5       30.42F WCI  -4
TRACY          SUNNY      6  -4  63 SE5       30.42F WCI  -3
SLAYTON        SUNNY      7  -4  62 CALM      30.40F
$$
MNZ065>067-074>077-082>085-091>093-272000-
   South Central Minnesota

CITY           SKY/WX    TMP DP  RH WIND       PRES   REMARKS
MANKATO        SUNNY      1  -9  60 CALM      30.47F
NEW ULM        SUNNY      0  -8  71 SW6       30.47F WCI -12
ST JAMES       SUNNY      0  -8  71 CALM      30.48F
FAIRMONT       SUNNY      1  -8  66 CALM      30.45F
GLENCOE        SUNNY      6  -2  69 S3        30.46F
FARIBAULT      SUNNY      7  -6  56 CALM      30.45F
OWATONNA       SUNNY      0  -6  78 CALM      30.44F
WASECA         SUNNY      0  -8  71 CALM      30.47F
ALBERT LEA     SUNNY      1  -6  71 NW3       30.43F
$$
MNZ078>079-086>088-094>096-272000-
   Southeast Minnesota

CITY           SKY/WX    TMP DP  RH WIND       PRES   REMARKS
ROCHESTER      SUNNY      3  -5  69 NW6       30.42F WCI  -8
RED WING         N/A     10  -2  56 W8        30.46F WCI  -1
STANTON        SUNNY      5  -4  65 CALM      30.45F
DODGE CENTER   SUNNY      3  -4  72 NW5       30.41F WCI  -6
WINONA         SUNNY     12   1  62 W5        30.47F WCI   4
AUSTIN         SUNNY      1  -6  71 NW5       30.42F WCI  -8
PRESTON        SUNNY      5  -3  68 NW7       30.42F WCI  -7
$$
ABBREVIATIONS USED IN REMARKS
   TC - TEMPERATURES IN CELSIUS
  WCI - WIND CHILL INDEX
   HX - HEAT INDEX
  VSB - VISIBILITY
$$



USA.gov is the U.S. government's official web portal to all federal, state and local government web resources and services.